START_TIME,STEP,MOV.,M34,t_acc.,L5,t_acc.,L18,t_acc.,L14,t_acc.
1979-07-21 03:00:24.430 ,1,0,0.,12.0,0.,12.0,0.,12.0,0.,12.0
1979-07-21 03:00:36.430 ,1,0,0.,12.0,0.,12.0,0.,12.0,0.,12.0
1979-07-21 03:00:48.430 ,2,1,0.,12.0,0.,12.0,0.,12.0,0.,12.0
1979-07-21 03:01:00.430 ,2,1,0.,12.0,0.,12.0,0.,12.0,0.,12.0
1979-07-21 03:01:12.430 ,2,0,0.,12.0,0.,12.0,0.,12.0,0.,12.0
1979-07-21 03:01:24.430 ,2,0,0.,12.0,0.,12.0,0.,12.0,0.,12.0
1979-07-21 03:01:36.430 ,3,1,0.,12.0,0.,12.0,0.,12.0,0.,12.0
1979-07-21 03:01:48.430 ,3,1,0.,12.0,0.,12.0,0.,12.0,0.,12.0
1979-07-21 03:02:00.430 ,3,0,0.,12.0,0.,12.0,0.,12.0,0.,12.0
1979-07-21 03:02:12.430 ,3,0,0.,12.0,0.,12.0,0.,12.0,0.,12.0
1979-07-21 03:02:24.430 ,4,1,0.,12.0,0.,12.0,0.,12.0,0.,12.0
1979-07-21 03:02:36.430 ,4,1,0.,12.0,0.,12.0,0.,12.0,0.,12.0
1979-07-21 03:02:48.430 ,4,0,0.,12.0,0.,12.0,0.,12.0,0.,12.0
1979-07-21 03:03:00.430 ,4,0,0.,12.0,0.,12.0,0.,12.0,0.,12.0
1979-07-21 03:03:12.430 ,5,1,0.,12.0,0.,12.0,0.,12.0,0.,12.0
1979-07-21 03:03:24.430 ,5,1,0.,12.0,0.,12.0,0.,12.0,0.,12.0
1979-07-21 03:03:36.430 ,5,0,0.,12.0,0.,12.0,0.,12.0,0.,12.0
1979-07-21 03:03:48.430 ,5,0,0.,12.0,0.,12.0,0.,12.0,0.,12.0
1979-07-21 03:04:00.430 ,6,1,0.,12.0,0.,12.0,0.,12.0,0.,12.0
1979-07-21 03:04:12.430 ,6,1,0.,12.0,0.,12.0,0.,12.0,0.,12.0
1979-07-21 03:04:24.430 ,6,0,0.,12.0,0.,12.0,0.,12.0,0.,12.0
1979-07-21 03:04:36.430 ,6,0,0.,12.0,0.,12.0,0.,12.0,0.,12.0
1979-07-21 03:04:48.430 ,7,1,0.,12.0,0.,12.0,0.,12.0,0.,12.0
1979-07-21 03:05:00.430 ,7,1,0.,12.0,0.,12.0,0.,12.0,0.,12.0
1979-07-21 03:05:12.430 ,7,0,0.,12.0,0.,12.0,0.,12.0,0.,12.0
1979-07-21 03:05:24.430 ,7,0,0.,12.0,0.,12.0,0.,12.0,0.,12.0
1979-07-21 03:05:36.430 ,7,1,0.,12.0,0.,12.0,0.,12.0,0.,12.0
1979-07-21 03:05:48.430 ,7,1,0.,12.0,0.,12.0,0.,12.0,0.,12.0
1979-07-21 03:06:00.430 ,7,0,0.,12.0,0.,12.0,0.,12.0,0.,12.0
1979-07-21 03:06:12.430 ,7,0,0.,12.0,0.,12.0,0.,12.0,0.,12.0
1979-07-21 03:06:24.430 ,6,1,0.,12.0,0.,12.0,0.,12.0,0.,12.0
1979-07-21 03:06:36.430 ,6,1,0.,12.0,0.,12.0,0.,12.0,0.,12.0
1979-07-21 03:06:48.430 ,6,0,0.,12.0,0.,12.0,0.,12.0,0.,12.0
1979-07-21 03:07:00.430 ,6,0,0.,12.0,0.,12.0,0.,12.0,0.,12.0
1979-07-21 03:07:12.430 ,5,1,0.,12.0,0.,12.0,0.,12.0,0.,12.0
1979-07-21 03:07:24.430 ,5,1,0.,12.0,0.,12.0,0.,12.0,0.,12.0
1979-07-21 03:07:36.430 ,5,0,0.,12.0,0.,12.0,0.,12.0,0.,12.0
1979-07-21 03:07:48.430 ,5,0,0.,12.0,0.,12.0,0.,12.0,0.,12.0
1979-07-21 03:08:00.430 ,4,1,0.,12.0,0.,12.0,0.,12.0,0.,12.0
1979-07-21 03:08:12.430 ,4,1,0.,12.0,0.,12.0,0.,12.0,0.,12.0
1979-07-21 03:08:24.430 ,4,0,0.,12.0,0.,12.0,0.,12.0,0.,12.0
1979-07-21 03:08:36.430 ,4,0,0.,12.0,0.,12.0,0.,12.0,0.,12.0
1979-07-21 03:08:48.430 ,3,1,0.,12.0,0.,12.0,0.,12.0,0.,12.0
1979-07-21 03:09:00.430 ,3,1,0.,12.0,0.,12.0,0.,12.0,0.,12.0
1979-07-21 03:09:12.430 ,3,0,0.,12.0,0.,12.0,0.,12.0,0.,12.0
1979-07-21 03:09:24.430 ,3,0,0.,12.0,0.,12.0,0.,12.0,0.,12.0
1979-07-21 03:09:36.430 ,2,1,0.,12.0,0.,12.0,0.,12.0,0.,12.0
1979-07-21 03:09:48.430 ,2,1,0.,12.0,0.,12.0,0.,12.0,0.,12.0
1979-07-21 03:10:00.430 ,2,0,0.,12.0,0.,12.0,0.,12.0,0.,12.0
1979-07-21 03:10:12.430 ,2,0,0.,12.0,0.,12.0,0.,12.0,0.,12.0
1979-07-21 03:10:24.430 ,1,1,0.,12.0,0.,12.0,0.,12.0,0.,12.0
1979-07-21 03:10:36.430 ,1,1,0.,12.0,0.,12.0,0.,12.0,0.,12.0
1979-07-21 03:10:48.430 ,1,0,1.,12.0,0.,12.0,0.,12.0,0.,12.0
1979-07-21 03:11:00.430 ,1,0,0.,12.0,0.,12.0,0.,12.0,0.,12.0
1979-07-21 03:11:12.430 ,0,1,0.,12.0,0.,12.0,0.,12.0,0.,12.0
1979-07-21 03:11:24.430 ,0,1,0.,12.0,0.,12.0,0.,12.0,0.,12.0
1979-07-21 03:11:36.430 ,0,0,0.,12.0,0.,12.0,0.,12.0,0.,12.0
1979-07-21 03:11:48.430 ,0,0,0.,12.0,0.,12.0,0.,12.0,0.,12.0
1979-07-21 03:12:00.430 ,0,1,0.,12.0,0.,12.0,0.,12.0,0.,12.0
1979-07-21 03:12:12.430 ,0,1,0.,12.0,0.,12.0,0.,12.0,0.,12.0
1979-07-21 03:12:24.430 ,0,0,0.,12.0,0.,12.0,0.,12.0,0.,12.0
1979-07-21 03:12:36.430 ,0,0,0.,12.0,0.,12.0,0.,12.0,0.,12.0
1979-07-21 03:12:48.430 ,1,1,0.,12.0,0.,12.0,0.,12.0,0.,12.0
1979-07-21 03:13:00.430 ,1,1,0.,12.0,0.,12.0,0.,12.0,0.,12.0
1979-07-21 03:13:12.430 ,1,0,0.,12.0,0.,12.0,0.,12.0,0.,12.0
1979-07-21 03:13:24.430 ,1,0,0.,12.0,0.,12.0,0.,12.0,0.,12.0
1979-07-21 03:13:36.430 ,2,1,0.,12.0,0.,12.0,0.,12.0,0.,12.0
1979-07-21 03:13:48.430 ,2,1,0.,12.0,0.,12.0,0.,12.0,0.,12.0
1979-07-21 03:14:00.430 ,2,0,0.,12.0,0.,12.0,0.,12.0,0.,12.0
1979-07-21 03:14:12.430 ,2,0,0.,12.0,0.,12.0,0.,12.0,0.,12.0
1979-07-21 03:14:24.430 ,3,1,0.,12.0,0.,12.0,0.,12.0,0.,12.0
1979-07-21 03:14:36.430 ,3,1,0.,12.0,0.,12.0,0.,12.0,0.,12.0
1979-07-21 03:14:48.430 ,3,0,0.,12.0,0.,12.0,0.,12.0,0.,12.0
1979-07-21 03:15:00.430 ,3,0,0.,12.0,0.,12.0,0.,12.0,0.,12.0
1979-07-21 03:15:12.430 ,4,1,0.,12.0,0.,12.0,0.,12.0,0.,12.0
1979-07-21 03:15:24.430 ,4,1,0.,12.0,0.,12.0,0.,12.0,0.,12.0
1979-07-21 03:15:36.430 ,4,0,0.,12.0,0.,12.0,0.,12.0,0.,12.0
1979-07-21 03:15:48.430 ,4,0,0.,12.0,0.,12.0,0.,12.0,0.,12.0
1979-07-21 03:16:00.430 ,5,1,0.,12.0,0.,12.0,0.,12.0,0.,12.0
1979-07-21 03:16:12.430 ,5,1,0.,12.0,0.,12.0,0.,12.0,0.,12.0
1979-07-21 03:16:24.430 ,5,0,0.,12.0,0.,12.0,0.,12.0,0.,12.0
1979-07-21 03:16:36.430 ,5,0,0.,12.0,0.,12.0,0.,12.0,0.,12.0
1979-07-21 03:16:48.430 ,6,1,0.,12.0,0.,12.0,0.,12.0,0.,12.0
1979-07-21 03:17:00.430 ,6,1,0.,12.0,0.,12.0,0.,12.0,0.,12.0
1979-07-21 03:17:12.430 ,6,0,0.,12.0,0.,12.0,0.,12.0,0.,12.0
1979-07-21 03:17:24.430 ,6,0,0.,12.0,0.,12.0,0.,12.0,0.,12.0
1979-07-21 03:17:36.430 ,7,1,0.,12.0,0.,12.0,0.,12.0,0.,12.0
1979-07-21 03:17:48.430 ,7,1,0.,12.0,0.,12.0,0.,12.0,0.,12.0
1979-07-21 03:18:00.430 ,7,0,0.,12.0,0.,12.0,0.,12.0,0.,12.0
1979-07-21 03:18:12.430 ,7,0,0.,12.0,0.,12.0,0.,12.0,0.,12.0
1979-07-21 03:18:24.430 ,7,1,0.,12.0,0.,12.0,0.,12.0,0.,12.0
1979-07-21 03:18:36.430 ,7,1,0.,12.0,0.,12.0,0.,12.0,0.,12.0
1979-07-21 03:18:48.430 ,7,0,0.,12.0,0.,12.0,0.,12.0,0.,12.0
1979-07-21 03:19:00.430 ,7,0,0.,12.0,0.,12.0,0.,12.0,0.,12.0
1979-07-21 03:19:12.430 ,6,1,0.,12.0,0.,12.0,0.,12.0,0.,12.0
1979-07-21 03:19:24.430 ,6,1,0.,12.0,0.,12.0,0.,12.0,0.,12.0
1979-07-21 03:19:36.430 ,6,0,0.,12.0,0.,12.0,0.,12.0,0.,12.0
1979-07-21 03:19:48.430 ,6,0,0.,12.0,0.,12.0,0.,12.0,0.,12.0
1979-07-21 03:20:00.430 ,5,1,0.,12.0,0.,12.0,0.,12.0,0.,12.0
1979-07-21 03:20:12.430 ,5,1,0.,12.0,0.,12.0,0.,12.0,0.,12.0
1979-07-21 03:20:24.430 ,5,0,0.,12.0,0.,12.0,0.,12.0,0.,12.0
1979-07-21 03:20:36.430 ,5,0,0.,12.0,0.,12.0,0.,12.0,0.,12.0
1979-07-21 03:20:48.430 ,4,1,0.,12.0,0.,12.0,0.,12.0,0.,12.0
1979-07-21 03:21:00.430 ,4,1,0.,12.0,0.,12.0,0.,12.0,0.,12.0
1979-07-21 03:21:12.430 ,4,0,0.,12.0,0.,12.0,0.,12.0,0.,12.0
1979-07-21 03:21:24.430 ,4,0,0.,12.0,0.,12.0,0.,12.0,0.,12.0
1979-07-21 03:21:36.430 ,3,1,0.,12.0,0.,12.0,0.,12.0,0.,12.0
1979-07-21 03:21:48.430 ,3,1,1.,12.0,0.,12.0,0.,12.0,0.,12.0
1979-07-21 03:22:00.430 ,3,0,0.,12.0,0.,12.0,0.,12.0,0.,12.0
1979-07-21 03:22:12.430 ,3,0,0.,12.0,0.,12.0,0.,12.0,0.,12.0
1979-07-21 03:22:24.430 ,2,1,0.,12.0,0.,12.0,0.,12.0,0.,12.0
1979-07-21 03:22:36.430 ,2,1,0.,12.0,0.,12.0,0.,12.0,0.,12.0
1979-07-21 03:22:48.430 ,2,0,0.,12.0,0.,12.0,0.,12.0,0.,12.0
1979-07-21 03:23:00.430 ,2,0,0.,12.0,0.,12.0,0.,12.0,0.,12.0
1979-07-21 03:23:12.430 ,1,1,0.,12.0,0.,12.0,0.,12.0,0.,12.0
1979-07-21 03:23:24.430 ,1,1,0.,12.0,0.,12.0,0.,12.0,0.,12.0
1979-07-21 03:23:36.430 ,1,0,0.,12.0,0.,12.0,0.,12.0,0.,12.0
1979-07-21 03:23:48.430 ,1,0,0.,12.0,0.,12.0,0.,12.0,0.,12.0
1979-07-21 03:24:00.430 ,0,1,0.,12.0,0.,12.0,0.,12.0,0.,12.0
1979-07-21 03:24:12.430 ,0,1,0.,12.0,0.,12.0,0.,12.0,0.,12.0
1979-07-21 03:24:24.430 ,0,0,0.,12.0,0.,12.0,0.,12.0,0.,12.0
1979-07-21 03:24:36.430 ,0,0,0.,12.0,0.,12.0,0.,12.0,0.,12.0
1979-07-21 03:24:48.430 ,0,1,0.,12.0,0.,12.0,0.,12.0,0.,12.0
1979-07-21 03:25:00.430 ,0,1,0.,12.0,0.,12.0,0.,12.0,0.,12.0
1979-07-21 03:25:12.430 ,0,0,0.,12.0,0.,12.0,0.,12.0,0.,12.0
1979-07-21 03:25:24.430 ,0,0,0.,12.0,0.,12.0,0.,12.0,0.,12.0
1979-07-21 03:25:36.430 ,1,1,0.,12.0,0.,12.0,0.,12.0,0.,12.0
1979-07-21 03:25:48.430 ,1,1,0.,12.0,0.,12.0,0.,12.0,0.,12.0
1979-07-21 03:26:00.430 ,1,0,0.,12.0,0.,12.0,0.,12.0,0.,12.0
1979-07-21 03:26:12.430 ,1,0,0.,12.0,0.,12.0,0.,12.0,0.,12.0
1979-07-21 03:26:24.430 ,2,1,0.,12.0,0.,12.0,0.,12.0,0.,12.0
1979-07-21 03:26:36.430 ,2,1,0.,12.0,0.,12.0,0.,12.0,0.,12.0
1979-07-21 03:26:48.430 ,2,0,0.,12.0,0.,12.0,0.,12.0,0.,12.0
1979-07-21 03:27:00.430 ,2,0,0.,12.0,0.,12.0,0.,12.0,0.,12.0
1979-07-21 03:27:12.430 ,3,1,0.,12.0,0.,12.0,0.,12.0,0.,12.0
1979-07-21 03:27:24.430 ,3,1,0.,12.0,0.,12.0,0.,12.0,0.,12.0
1979-07-21 03:27:36.430 ,3,0,0.,12.0,0.,12.0,0.,12.0,0.,12.0
1979-07-21 03:27:48.430 ,3,0,0.,12.0,0.,12.0,0.,12.0,0.,12.0
1979-07-21 03:28:00.430 ,4,1,0.,12.0,0.,12.0,0.,12.0,0.,12.0
1979-07-21 03:28:12.430 ,4,1,0.,12.0,0.,12.0,0.,12.0,0.,12.0
1979-07-21 03:28:24.430 ,4,0,0.,12.0,0.,12.0,0.,12.0,0.,12.0
1979-07-21 03:28:36.430 ,4,0,0.,12.0,0.,12.0,0.,12.0,0.,12.0
1979-07-21 03:28:48.430 ,5,1,0.,12.0,0.,12.0,0.,12.0,0.,12.0
1979-07-21 03:29:00.430 ,5,1,0.,12.0,0.,12.0,0.,12.0,0.,12.0
1979-07-21 03:29:12.430 ,5,0,0.,12.0,0.,12.0,0.,12.0,0.,12.0
1979-07-21 03:29:24.430 ,5,0,0.,12.0,0.,12.0,0.,12.0,0.,12.0
1979-07-21 03:29:36.430 ,6,1,0.,12.0,0.,12.0,0.,12.0,0.,12.0
1979-07-21 03:29:48.430 ,6,1,0.,12.0,0.,12.0,0.,12.0,0.,12.0
1979-07-21 03:30:00.430 ,6,0,0.,12.0,0.,12.0,0.,12.0,0.,12.0
1979-07-21 03:30:12.430 ,6,0,1.,12.0,0.,12.0,0.,12.0,0.,12.0
1979-07-21 03:30:24.430 ,7,0,0.,12.0,0.,12.0,0.,12.0,0.,12.0
1979-07-21 03:30:36.430 ,7,0,0.,12.0,0.,12.0,0.,12.0,0.,12.0
1979-07-21 03:30:48.430 ,7,0,0.,12.0,0.,12.0,0.,12.0,0.,12.0
1979-07-21 03:31:00.430 ,7,0,0.,12.0,0.,12.0,0.,12.0,0.,12.0
1979-07-21 03:31:12.430 ,4,1,0.,12.0,0.,12.0,0.,12.0,0.,12.0
1979-07-21 03:31:24.430 ,4,1,0.,12.0,0.,12.0,0.,12.0,0.,12.0
1979-07-21 03:31:36.430 ,0,1,0.,12.0,0.,12.0,0.,12.0,0.,12.0
1979-07-21 03:31:48.430 ,0,1,0.,12.0,0.,12.0,0.,12.0,0.,12.0
1979-07-21 03:32:00.430 ,3,1,0.,12.0,0.,12.0,0.,12.0,0.,12.0
1979-07-21 03:32:12.430 ,3,1,0.,12.0,0.,12.0,0.,12.0,0.,12.0
1979-07-21 03:32:24.430 ,7,1,0.,12.0,0.,12.0,0.,12.0,0.,12.0
1979-07-21 03:32:36.430 ,7,1,0.,12.0,0.,12.0,0.,12.0,0.,12.0
1979-07-21 03:32:48.430 ,4,1,0.,12.0,0.,12.0,0.,12.0,0.,12.0
1979-07-21 03:33:00.430 ,4,1,0.,12.0,0.,12.0,0.,12.0,0.,12.0
1979-07-21 03:33:12.430 ,0,1,0.,12.0,0.,12.0,0.,12.0,0.,12.0
1979-07-21 03:33:24.430 ,0,1,0.,12.0,0.,12.0,0.,12.0,0.,12.0
1979-07-21 03:33:36.430 ,3,1,0.,12.0,0.,12.0,0.,12.0,0.,12.0
1979-07-21 03:33:48.430 ,3,1,0.,12.0,0.,12.0,0.,12.0,0.,12.0
1979-07-21 03:34:00.430 ,7,1,0.,12.0,0.,12.0,0.,12.0,0.,12.0
1979-07-21 03:34:12.430 ,7,1,0.,12.0,0.,12.0,0.,12.0,0.,12.0
1979-07-21 03:34:24.430 ,4,1,0.,12.0,0.,12.0,0.,12.0,0.,12.0
1979-07-21 03:34:36.430 ,4,1,0.,12.0,0.,12.0,0.,12.0,0.,12.0
1979-07-21 03:34:48.430 ,0,1,0.,12.0,0.,12.0,0.,12.0,0.,12.0
1979-07-21 03:35:00.430 ,0,1,0.,12.0,0.,12.0,0.,12.0,0.,12.0
1979-07-21 03:35:12.430 ,3,1,0.,12.0,0.,12.0,0.,12.0,0.,12.0
1979-07-21 03:35:24.430 ,3,1,0.,12.0,0.,12.0,0.,12.0,0.,12.0
1979-07-21 03:35:36.430 ,7,1,0.,12.0,0.,12.0,0.,12.0,0.,12.0
1979-07-21 03:35:48.430 ,7,1,0.,12.0,0.,12.0,0.,12.0,0.,12.0
1979-07-21 03:36:00.430 ,4,1,0.,12.0,0.,12.0,0.,12.0,0.,12.0
1979-07-21 03:36:12.430 ,4,1,0.,12.0,0.,12.0,0.,12.0,0.,12.0
1979-07-21 03:36:24.430 ,0,1,0.,12.0,0.,12.0,0.,12.0,0.,12.0
1979-07-21 03:36:36.430 ,0,1,0.,12.0,0.,12.0,0.,12.0,0.,12.0
1979-07-21 03:36:48.430 ,3,1,0.,12.0,0.,12.0,0.,12.0,0.,12.0
1979-07-21 03:37:00.430 ,3,1,0.,12.0,0.,12.0,0.,12.0,0.,12.0
1979-07-21 03:37:12.430 ,7,1,0.,12.0,0.,12.0,0.,12.0,0.,12.0
1979-07-21 03:37:24.430 ,7,1,0.,12.0,0.,12.0,0.,12.0,0.,12.0
1979-07-21 03:37:36.430 ,4,1,0.,12.0,0.,12.0,0.,12.0,0.,12.0
1979-07-21 03:37:48.430 ,4,1,0.,12.0,0.,12.0,0.,12.0,0.,12.0
1979-07-21 03:38:00.430 ,0,1,0.,12.0,0.,12.0,0.,12.0,0.,12.0
1979-07-21 03:38:12.430 ,0,1,0.,12.0,0.,12.0,0.,12.0,0.,12.0
1979-07-21 03:38:24.430 ,3,1,0.,12.0,0.,12.0,0.,12.0,0.,12.0
1979-07-21 03:38:36.430 ,3,1,0.,12.0,0.,12.0,0.,12.0,0.,12.0
1979-07-21 03:38:48.430 ,7,1,0.,12.0,0.,12.0,0.,12.0,0.,12.0
1979-07-21 03:39:00.430 ,7,1,0.,12.0,0.,12.0,0.,12.0,0.,12.0
1979-07-21 03:39:12.430 ,4,1,0.,12.0,0.,12.0,0.,12.0,0.,12.0
1979-07-21 03:39:24.430 ,4,1,0.,12.0,0.,12.0,0.,12.0,0.,12.0
1979-07-21 03:39:36.430 ,0,1,0.,12.0,0.,12.0,0.,12.0,0.,12.0
1979-07-21 03:39:48.430 ,0,1,0.,12.0,0.,12.0,0.,12.0,0.,12.0
1979-07-21 03:40:00.430 ,3,1,0.,12.0,0.,12.0,0.,12.0,0.,12.0
1979-07-21 03:40:12.430 ,3,1,0.,12.0,0.,12.0,0.,12.0,0.,12.0
1979-07-21 03:40:24.430 ,7,1,0.,12.0,0.,12.0,0.,12.0,0.,12.0
1979-07-21 03:40:36.430 ,7,1,0.,12.0,0.,12.0,0.,12.0,0.,12.0
1979-07-21 03:40:48.430 ,4,1,0.,12.0,0.,12.0,0.,12.0,0.,12.0
1979-07-21 03:41:00.430 ,4,1,0.,12.0,0.,12.0,0.,12.0,0.,12.0
1979-07-21 03:41:12.430 ,0,1,0.,12.0,0.,12.0,0.,12.0,0.,12.0
1979-07-21 03:41:24.430 ,0,1,0.,12.0,0.,12.0,0.,12.0,0.,12.0
1979-07-21 03:41:36.430 ,0,0,0.,12.0,0.,12.0,0.,12.0,0.,12.0
1979-07-21 03:41:48.430 ,0,0,0.,12.0,0.,12.0,0.,12.0,0.,12.0
1979-07-21 03:42:00.430 ,0,0,0.,12.0,0.,12.0,0.,12.0,0.,12.0
1979-07-21 03:42:12.430 ,0,0,0.,12.0,0.,12.0,0.,12.0,0.,12.0
1979-07-21 03:42:24.430 ,0,0,0.,12.0,0.,12.0,0.,12.0,0.,12.0
1979-07-21 03:42:36.430 ,0,0,0.,12.0,0.,12.0,0.,12.0,0.,12.0
1979-07-21 03:42:48.430 ,0,0,0.,12.0,0.,12.0,0.,12.0,0.,12.0
1979-07-21 03:43:00.430 ,0,0,0.,12.0,0.,12.0,0.,12.0,0.,12.0
1979-07-21 03:43:12.430 ,4,1,0.,12.0,0.,12.0,0.,12.0,0.,12.0
1979-07-21 03:43:24.430 ,4,1,0.,12.0,0.,12.0,0.,12.0,0.,12.0
1979-07-21 03:43:36.430 ,4,0,0.,12.0,0.,12.0,0.,12.0,0.,12.0
1979-07-21 03:43:48.430 ,4,0,0.,12.0,0.,12.0,0.,12.0,0.,12.0
1979-07-21 03:44:00.430 ,3,1,0.,12.0,0.,12.0,0.,12.0,0.,12.0
1979-07-21 03:44:12.430 ,3,1,0.,12.0,0.,12.0,0.,12.0,0.,12.0
1979-07-21 03:44:24.430 ,3,0,0.,12.0,0.,12.0,0.,12.0,0.,12.0
1979-07-21 03:44:36.430 ,3,0,0.,12.0,0.,12.0,0.,12.0,0.,12.0
1979-07-21 03:44:48.430 ,2,1,0.,12.0,0.,12.0,0.,12.0,0.,12.0
1979-07-21 03:45:00.430 ,2,1,0.,12.0,0.,12.0,0.,12.0,0.,12.0
1979-07-21 03:45:12.430 ,2,0,0.,12.0,0.,12.0,0.,12.0,0.,12.0
1979-07-21 03:45:24.430 ,2,0,0.,12.0,0.,12.0,0.,12.0,0.,12.0
1979-07-21 03:45:36.430 ,1,1,0.,12.0,0.,12.0,0.,12.0,0.,12.0
1979-07-21 03:45:48.430 ,1,1,0.,12.0,0.,12.0,0.,12.0,0.,12.0
1979-07-21 03:46:00.430 ,1,0,0.,12.0,0.,12.0,0.,12.0,0.,12.0
1979-07-21 03:46:12.430 ,1,0,0.,12.0,0.,12.0,0.,12.0,0.,12.0
1979-07-21 03:46:24.430 ,0,1,0.,12.0,0.,12.0,0.,12.0,0.,12.0
1979-07-21 03:46:36.430 ,0,1,0.,12.0,0.,12.0,0.,12.0,0.,12.0
1979-07-21 03:46:48.430 ,0,0,0.,12.0,0.,12.0,0.,12.0,0.,12.0
1979-07-21 03:47:00.430 ,0,0,0.,12.0,0.,12.0,0.,12.0,0.,12.0
1979-07-21 03:47:12.430 ,0,1,0.,12.0,0.,12.0,0.,12.0,0.,12.0
1979-07-21 03:47:24.430 ,0,1,0.,12.0,0.,12.0,0.,12.0,0.,12.0
1979-07-21 03:47:36.430 ,0,0,0.,12.0,0.,12.0,0.,12.0,0.,12.0
1979-07-21 03:47:48.430 ,0,0,0.,12.0,0.,12.0,0.,12.0,0.,12.0
1979-07-21 03:48:00.430 ,1,1,0.,12.0,0.,12.0,0.,12.0,0.,12.0
1979-07-21 03:48:12.430 ,1,1,0.,12.0,0.,12.0,0.,12.0,0.,12.0
1979-07-21 03:48:24.430 ,1,0,0.,12.0,0.,12.0,0.,12.0,0.,12.0
1979-07-21 03:48:36.430 ,1,0,0.,12.0,0.,12.0,0.,12.0,0.,12.0
1979-07-21 03:48:48.430 ,2,1,0.,12.0,0.,12.0,0.,12.0,0.,12.0
1979-07-21 03:49:00.430 ,2,1,0.,12.0,0.,12.0,0.,12.0,0.,12.0
1979-07-21 03:49:12.430 ,2,0,0.,12.0,0.,12.0,0.,12.0,0.,12.0
1979-07-21 03:49:24.430 ,2,0,0.,12.0,0.,12.0,0.,12.0,0.,12.0
1979-07-21 03:49:36.430 ,3,1,0.,12.0,0.,12.0,0.,12.0,0.,12.0
1979-07-21 03:49:48.430 ,3,1,0.,12.0,0.,12.0,0.,12.0,0.,12.0
1979-07-21 03:50:00.430 ,3,0,0.,12.0,0.,12.0,0.,12.0,0.,12.0
1979-07-21 03:50:12.430 ,3,0,0.,12.0,0.,12.0,0.,12.0,0.,12.0
1979-07-21 03:50:24.430 ,4,1,0.,12.0,0.,12.0,0.,12.0,0.,12.0
1979-07-21 03:50:36.430 ,4,1,0.,12.0,0.,12.0,0.,12.0,0.,12.0
1979-07-21 03:50:48.430 ,4,0,0.,12.0,0.,12.0,0.,12.0,0.,12.0
1979-07-21 03:51:00.430 ,4,0,0.,12.0,0.,12.0,0.,12.0,0.,12.0
1979-07-21 03:51:12.430 ,5,1,0.,12.0,0.,12.0,0.,12.0,0.,12.0
1979-07-21 03:51:24.430 ,5,1,0.,12.0,0.,12.0,0.,12.0,0.,12.0
1979-07-21 03:51:36.430 ,5,0,0.,12.0,0.,12.0,0.,12.0,0.,12.0
1979-07-21 03:51:48.430 ,5,0,0.,12.0,0.,12.0,0.,12.0,0.,12.0
1979-07-21 03:52:00.430 ,6,1,0.,12.0,0.,12.0,0.,12.0,0.,12.0
1979-07-21 03:52:12.430 ,6,1,0.,12.0,0.,12.0,0.,12.0,0.,12.0
1979-07-21 03:52:24.430 ,6,0,0.,12.0,0.,12.0,0.,12.0,0.,12.0
1979-07-21 03:52:36.430 ,6,0,0.,12.0,0.,12.0,0.,12.0,0.,12.0
1979-07-21 03:52:48.430 ,7,1,0.,12.0,0.,12.0,0.,12.0,0.,12.0
1979-07-21 03:53:00.430 ,7,1,0.,12.0,0.,12.0,0.,12.0,0.,12.0
1979-07-21 03:53:12.430 ,7,0,0.,12.0,0.,12.0,0.,12.0,0.,12.0
1979-07-21 03:53:24.430 ,7,0,0.,12.0,0.,12.0,0.,12.0,0.,12.0
1979-07-21 03:53:36.430 ,7,1,0.,12.0,0.,12.0,0.,12.0,0.,12.0
1979-07-21 03:53:48.430 ,7,1,0.,12.0,0.,12.0,0.,12.0,0.,12.0
1979-07-21 03:54:00.430 ,7,0,0.,12.0,0.,12.0,0.,12.0,0.,12.0
1979-07-21 03:54:12.430 ,7,0,0.,12.0,0.,12.0,0.,12.0,0.,12.0
1979-07-21 03:54:24.430 ,6,1,0.,12.0,0.,12.0,0.,12.0,0.,12.0
1979-07-21 03:54:36.430 ,6,1,0.,12.0,0.,12.0,0.,12.0,0.,12.0
1979-07-21 03:54:48.430 ,6,0,0.,12.0,0.,12.0,0.,12.0,0.,12.0
1979-07-21 03:55:00.430 ,6,0,0.,12.0,0.,12.0,0.,12.0,0.,12.0
1979-07-21 03:55:12.430 ,5,1,0.,12.0,0.,12.0,0.,12.0,0.,12.0
1979-07-21 03:55:24.430 ,5,1,0.,12.0,0.,12.0,0.,12.0,0.,12.0
1979-07-21 03:55:36.430 ,5,0,0.,12.0,0.,12.0,0.,12.0,0.,12.0
1979-07-21 03:55:48.430 ,5,0,0.,12.0,0.,12.0,0.,12.0,0.,12.0
1979-07-21 03:56:00.430 ,4,1,0.,12.0,0.,12.0,0.,12.0,0.,12.0
1979-07-21 03:56:12.430 ,4,1,0.,12.0,0.,12.0,0.,12.0,0.,12.0
1979-07-21 03:56:24.430 ,4,0,0.,12.0,0.,12.0,0.,12.0,0.,12.0
1979-07-21 03:56:36.430 ,4,0,0.,12.0,0.,12.0,0.,12.0,0.,12.0
1979-07-21 03:56:48.430 ,3,1,0.,12.0,0.,12.0,0.,12.0,0.,12.0
1979-07-21 03:57:00.430 ,3,1,0.,12.0,0.,12.0,0.,12.0,0.,12.0
1979-07-21 03:57:12.430 ,3,0,0.,12.0,0.,12.0,0.,12.0,0.,12.0
1979-07-21 03:57:24.430 ,3,0,0.,12.0,0.,12.0,0.,12.0,0.,12.0
1979-07-21 03:57:36.430 ,2,1,0.,12.0,0.,12.0,0.,12.0,0.,12.0
1979-07-21 03:57:48.430 ,2,1,0.,12.0,0.,12.0,0.,12.0,0.,12.0
1979-07-21 03:58:00.430 ,2,0,0.,12.0,0.,12.0,0.,12.0,0.,12.0
1979-07-21 03:58:12.430 ,2,0,0.,12.0,0.,12.0,0.,12.0,0.,12.0
1979-07-21 03:58:24.430 ,1,1,0.,12.0,0.,12.0,0.,12.0,0.,12.0
1979-07-21 03:58:36.430 ,1,1,0.,12.0,0.,12.0,0.,12.0,0.,12.0
1979-07-21 03:58:48.430 ,1,0,0.,12.0,0.,12.0,0.,12.0,0.,12.0
1979-07-21 03:59:00.430 ,1,0,0.,12.0,0.,12.0,0.,12.0,0.,12.0
1979-07-21 03:59:12.430 ,0,1,0.,12.0,0.,12.0,0.,12.0,0.,12.0
1979-07-21 03:59:24.430 ,0,1,0.,12.0,0.,12.0,0.,12.0,0.,12.0
1979-07-21 03:59:36.430 ,0,0,0.,12.0,0.,12.0,0.,12.0,0.,12.0
1979-07-21 03:59:48.430 ,0,0,0.,12.0,0.,12.0,0.,12.0,0.,12.0
1979-07-21 04:00:00.430 ,0,1,0.,12.0,0.,12.0,0.,12.0,0.,12.0
1979-07-21 04:00:12.430 ,0,1,0.,12.0,0.,12.0,0.,12.0,0.,12.0
1979-07-21 04:00:24.430 ,0,0,0.,12.0,0.,12.0,0.,12.0,0.,12.0
1979-07-21 04:00:36.430 ,0,0,0.,12.0,0.,12.0,0.,12.0,0.,12.0
1979-07-21 04:00:48.430 ,1,1,0.,12.0,0.,12.0,0.,12.0,0.,12.0
1979-07-21 04:01:00.430 ,1,1,0.,12.0,0.,12.0,0.,12.0,0.,12.0
1979-07-21 04:01:12.430 ,1,0,0.,12.0,0.,12.0,0.,12.0,0.,12.0
1979-07-21 04:01:24.430 ,1,0,0.,12.0,0.,12.0,0.,12.0,0.,12.0
1979-07-21 04:01:36.430 ,2,1,0.,12.0,0.,12.0,0.,12.0,0.,12.0
1979-07-21 04:01:48.430 ,2,1,0.,12.0,0.,12.0,0.,12.0,0.,12.0
1979-07-21 04:02:00.430 ,2,0,0.,12.0,0.,12.0,0.,12.0,0.,12.0
1979-07-21 04:02:12.430 ,2,0,0.,12.0,0.,12.0,0.,12.0,0.,12.0
1979-07-21 04:02:24.430 ,3,1,0.,12.0,0.,12.0,0.,12.0,0.,12.0
1979-07-21 04:02:36.430 ,3,1,0.,12.0,0.,12.0,0.,12.0,0.,12.0
1979-07-21 04:02:48.430 ,3,0,0.,12.0,0.,12.0,0.,12.0,0.,12.0
1979-07-21 04:03:00.430 ,3,0,0.,12.0,0.,12.0,0.,12.0,0.,12.0
1979-07-21 04:03:12.430 ,4,1,0.,12.0,0.,12.0,0.,12.0,0.,12.0
1979-07-21 04:03:24.430 ,4,1,0.,12.0,0.,12.0,0.,12.0,0.,12.0
1979-07-21 04:03:36.430 ,4,0,0.,12.0,0.,12.0,0.,12.0,0.,12.0
1979-07-21 04:03:48.430 ,4,0,0.,12.0,0.,12.0,0.,12.0,0.,12.0
1979-07-21 04:04:00.430 ,5,1,0.,12.0,0.,12.0,0.,12.0,0.,12.0
1979-07-21 04:04:12.430 ,5,1,0.,12.0,0.,12.0,0.,12.0,0.,12.0
1979-07-21 04:04:24.430 ,5,0,0.,12.0,0.,12.0,0.,12.0,0.,12.0
1979-07-21 04:04:36.430 ,5,0,0.,12.0,0.,12.0,0.,12.0,0.,12.0
1979-07-21 04:04:48.430 ,6,1,0.,12.0,0.,12.0,0.,12.0,0.,12.0
1979-07-21 04:05:00.430 ,6,1,0.,12.0,0.,12.0,0.,12.0,0.,12.0
1979-07-21 04:05:12.430 ,6,0,0.,12.0,0.,12.0,0.,12.0,0.,12.0
1979-07-21 04:05:24.430 ,6,0,0.,12.0,0.,12.0,0.,12.0,0.,12.0
1979-07-21 04:05:36.430 ,7,1,0.,12.0,0.,12.0,0.,12.0,0.,12.0
1979-07-21 04:05:48.430 ,7,1,0.,12.0,0.,12.0,0.,12.0,0.,12.0
1979-07-21 04:06:00.430 ,7,0,0.,12.0,0.,12.0,0.,12.0,0.,12.0
1979-07-21 04:06:12.430 ,7,0,0.,12.0,0.,12.0,0.,12.0,0.,12.0
1979-07-21 04:06:24.430 ,7,1,0.,12.0,0.,12.0,0.,12.0,0.,12.0
1979-07-21 04:06:36.430 ,7,1,0.,12.0,0.,12.0,0.,12.0,0.,12.0
1979-07-21 04:06:48.430 ,7,0,0.,12.0,0.,12.0,0.,12.0,0.,12.0
1979-07-21 04:07:00.430 ,7,0,0.,12.0,0.,12.0,0.,12.0,0.,12.0
1979-07-21 04:07:12.430 ,6,1,0.,12.0,0.,12.0,0.,12.0,0.,12.0
1979-07-21 04:07:24.430 ,6,1,0.,12.0,0.,12.0,0.,12.0,0.,12.0
1979-07-21 04:07:36.430 ,6,0,0.,12.0,0.,12.0,0.,12.0,0.,12.0
1979-07-21 04:07:48.430 ,6,0,0.,12.0,0.,12.0,0.,12.0,0.,12.0
1979-07-21 04:08:00.430 ,5,1,0.,12.0,0.,12.0,0.,12.0,0.,12.0
1979-07-21 04:08:12.430 ,5,1,0.,12.0,0.,12.0,0.,12.0,0.,12.0
1979-07-21 04:08:24.430 ,5,0,0.,12.0,0.,12.0,0.,12.0,0.,12.0
1979-07-21 04:08:36.430 ,5,0,0.,12.0,0.,12.0,0.,12.0,0.,12.0
1979-07-21 04:08:48.430 ,4,1,0.,12.0,0.,12.0,0.,12.0,0.,12.0
1979-07-21 04:09:00.430 ,4,1,0.,12.0,0.,12.0,0.,12.0,0.,12.0
1979-07-21 04:09:12.430 ,4,0,0.,12.0,0.,12.0,0.,12.0,0.,12.0
1979-07-21 04:09:24.430 ,4,0,0.,12.0,0.,12.0,0.,12.0,0.,12.0
1979-07-21 04:09:36.430 ,3,1,0.,12.0,0.,12.0,0.,12.0,0.,12.0
1979-07-21 04:09:48.430 ,3,1,0.,12.0,0.,12.0,0.,12.0,0.,12.0
1979-07-21 04:10:00.430 ,3,0,0.,12.0,0.,12.0,0.,12.0,0.,12.0
1979-07-21 04:10:12.430 ,3,0,0.,12.0,0.,12.0,0.,12.0,0.,12.0
1979-07-21 04:10:24.430 ,2,1,0.,12.0,0.,12.0,0.,12.0,0.,12.0
1979-07-21 04:10:36.430 ,2,1,0.,12.0,0.,12.0,0.,12.0,0.,12.0
1979-07-21 04:10:48.430 ,2,0,0.,12.0,0.,12.0,0.,12.0,0.,12.0
1979-07-21 04:11:00.430 ,2,0,0.,12.0,0.,12.0,0.,12.0,0.,12.0
1979-07-21 04:11:12.430 ,1,1,0.,12.0,0.,12.0,0.,12.0,0.,12.0
1979-07-21 04:11:24.430 ,1,1,0.,12.0,0.,12.0,0.,12.0,0.,12.0
1979-07-21 04:11:36.430 ,1,0,0.,12.0,0.,12.0,0.,12.0,0.,12.0
1979-07-21 04:11:48.430 ,1,0,0.,12.0,0.,12.0,0.,12.0,0.,12.0
1979-07-21 04:12:00.430 ,0,1,0.,12.0,0.,12.0,0.,12.0,0.,12.0
1979-07-21 04:12:12.430 ,0,1,0.,12.0,0.,12.0,0.,12.0,0.,12.0
1979-07-21 04:12:24.430 ,0,0,0.,12.0,0.,12.0,0.,12.0,0.,12.0
1979-07-21 04:12:36.430 ,0,0,0.,12.0,0.,12.0,0.,12.0,0.,12.0
1979-07-21 04:12:48.430 ,0,1,0.,12.0,0.,12.0,0.,12.0,0.,12.0
1979-07-21 04:13:00.430 ,0,1,0.,12.0,0.,12.0,0.,12.0,0.,12.0
1979-07-21 04:13:12.430 ,0,0,0.,12.0,0.,12.0,0.,12.0,0.,12.0
1979-07-21 04:13:24.430 ,0,0,0.,12.0,0.,12.0,0.,12.0,0.,12.0
1979-07-21 04:13:36.430 ,1,1,0.,12.0,0.,12.0,0.,12.0,0.,12.0
1979-07-21 04:13:48.430 ,1,1,0.,12.0,0.,12.0,0.,12.0,0.,12.0
1979-07-21 04:14:00.430 ,1,0,0.,12.0,0.,12.0,0.,12.0,0.,12.0
1979-07-21 04:14:12.430 ,1,0,0.,12.0,0.,12.0,0.,12.0,0.,12.0
1979-07-21 04:14:24.430 ,2,1,0.,12.0,0.,12.0,0.,12.0,0.,12.0
1979-07-21 04:14:36.430 ,2,1,0.,12.0,0.,12.0,0.,12.0,0.,12.0
1979-07-21 04:14:48.430 ,2,0,0.,12.0,0.,12.0,0.,12.0,0.,12.0
1979-07-21 04:15:00.430 ,2,0,0.,12.0,0.,12.0,0.,12.0,0.,12.0
1979-07-21 04:15:12.430 ,3,1,0.,12.0,0.,12.0,0.,12.0,0.,12.0
1979-07-21 04:15:24.430 ,3,1,0.,12.0,0.,12.0,0.,12.0,0.,12.0
1979-07-21 04:15:36.430 ,3,0,0.,12.0,0.,12.0,0.,12.0,0.,12.0
1979-07-21 04:15:48.430 ,3,0,0.,12.0,0.,12.0,0.,12.0,0.,12.0
1979-07-21 04:16:00.430 ,4,1,0.,12.0,0.,12.0,0.,12.0,0.,12.0
1979-07-21 04:16:12.430 ,4,1,0.,12.0,0.,12.0,0.,12.0,0.,12.0
1979-07-21 04:16:24.430 ,4,0,0.,12.0,0.,12.0,0.,12.0,0.,12.0
1979-07-21 04:16:36.430 ,4,0,0.,12.0,0.,12.0,0.,12.0,0.,12.0
1979-07-21 04:16:48.420 ,5,1,0.,12.0,0.,12.0,0.,12.0,0.,12.0
1979-07-21 04:17:00.420 ,5,1,0.,12.0,0.,12.0,0.,12.0,0.,12.0
1979-07-21 04:17:12.420 ,5,0,0.,12.0,0.,12.0,0.,12.0,0.,12.0
1979-07-21 04:17:24.420 ,5,0,0.,12.0,0.,12.0,0.,12.0,0.,12.0